Location: Geroldsau
(48.7259°N, 8.2466°E)
Time: 09:16:52
(UTC+00:00)

FENGYUN 1C DEB - Pass Details

Date: 07 February 2022
Orbit: 832 x 1169 km, 98.6° (Epoch: 24 May)

Event Time Altitude Azimuth Distance (km) Brightness Sun altitude
Rises 04:04:43 0° 176° (S) 3,373 ? -27.3°
Enters shadow 04:06:57 - 180° (S) 2,493 ? -26.9°
Exits shadow 04:19:08 - 341° (NNW) 3,036 ? -24.9°
Sets 04:20:16 0° 343° (NNW) 3,486 ? -24.7°
